EN

Hourly Weather Kazanka

Today, 4 August, Wednesday

Time Temperature Precipitation Wind Pressure Humidity
00:00 +21°C° 0 mm 3 mps 753 mmHg 56%
01:00 +21°C° 0 mm 3 mps 753 mmHg 56%
02:00 +21°C° 0 mm 2 mps 753 mmHg 56%
03:00 +20°C° 0 mm 2 mps 753 mmHg 58%
04:00 +20°C° 0 mm 2 mps 753 mmHg 61%
05:00 +19°C° 0 mm 2 mps 753 mmHg 63%
06:00 +21°C° 0 mm 2 mps 754 mmHg 58%
07:00 +24°C° 0 mm 2 mps 754 mmHg 52%
08:00 +26°C° 0 mm 2 mps 754 mmHg 47%
09:00 +27°C° 0 mm 1 mps 754 mmHg 42%
10:00 +28°C° 0 mm 1 mps 754 mmHg 38%
11:00 +30°C° 0 mm 1 mps 754 mmHg 34%
12:00 +30°C° 0 mm 1 mps 754 mmHg 33%
13:00 +31°C° 0 mm 1 mps 753 mmHg 31%
14:00 +31°C° 0 mm 1 mps 753 mmHg 30%
15:00 +31°C° 0 mm 1 mps 753 mmHg 30%
16:00 +31°C° 0 mm 1 mps 753 mmHg 30%
17:00 +31°C° 0 mm 1 mps 753 mmHg 30%
18:00 +29°C° 0 mm 1 mps 753 mmHg 34%
19:00 +28°C° 0 mm 1 mps 753 mmHg 37%
20:00 +26°C° 0 mm 1 mps 753 mmHg 41%
21:00 +25°C° 0 mm 2 mps 753 mmHg 42%
22:00 +25°C° 0 mm 2 mps 753 mmHg 44%
23:00 +24°C° 0 mm 2 mps 753 mmHg 46%

Tomorrow, 5 August, Thursday

Time Temperature Precipitation Wind Pressure Humidity
00:00 +24°C° 0 mm 2 mps 753 mmHg 47%
01:00 +24°C° 0 mm 2 mps 753 mmHg 48%
02:00 +23°C° 0 mm 2 mps 753 mmHg 49%
03:00 +23°C° 0 mm 2 mps 752 mmHg 51%
04:00 +23°C° 0 mm 2 mps 752 mmHg 53%
05:00 +21°C° 0 mm 2 mps 752 mmHg 55%
06:00 +24°C° 0 mm 3 mps 752 mmHg 52%
07:00 +26°C° 0 mm 3 mps 752 mmHg 48%
08:00 +28°C° 0 mm 4 mps 752 mmHg 44%
09:00 +30°C° 0 mm 4 mps 752 mmHg 41%
10:00 +32°C° 0 mm 4 mps 752 mmHg 38%
11:00 +33°C° 0 mm 4 mps 752 mmHg 35%
12:00 +34°C° 0 mm 4 mps 751 mmHg 33%
13:00 +34°C° 0 mm 4 mps 751 mmHg 31%
14:00 +35°C° 0 mm 4 mps 750 mmHg 30%
15:00 +34°C° 0 mm 4 mps 750 mmHg 32%
16:00 +34°C° 0 mm 3 mps 750 mmHg 33%
17:00 +33°C° 0 mm 3 mps 749 mmHg 35%
18:00 +31°C° 0 mm 3 mps 749 mmHg 38%
19:00 +30°C° 0 mm 3 mps 749 mmHg 40%
20:00 +28°C° 0 mm 4 mps 749 mmHg 43%
21:00 +27°C° 0 mm 3 mps 749 mmHg 45%
22:00 +26°C° 0 mm 3 mps 748 mmHg 48%
23:00 +25°C° 0 mm 3 mps 748 mmHg 50%

Day after tomorrow, 6 August, Friday

Time Temperature Precipitation Wind Pressure Humidity
00:00 +25°C° 0 mm 3 mps 748 mmHg 55%
01:00 +24°C° 0 mm 2 mps 748 mmHg 59%
02:00 +24°C° 0 mm 2 mps 749 mmHg 63%
03:00 +24°C° 0 mm 2 mps 748 mmHg 64%
04:00 +23°C° 0 mm 2 mps 748 mmHg 65%
05:00 +23°C° 0 mm 2 mps 748 mmHg 65%
06:00 +25°C° 0 mm 3 mps 747 mmHg 57%
07:00 +27°C° 0 mm 4 mps 747 mmHg 50%
08:00 +29°C° 0 mm 4 mps 746 mmHg 42%
09:00 +32°C° 0 mm 4 mps 746 mmHg 37%
10:00 +34°C° 0 mm 4 mps 746 mmHg 33%
11:00 +35°C° 0 mm 4 mps 746 mmHg 28%
12:00 +36°C° 0 mm 4 mps 746 mmHg 27%
13:00 +36°C° 0 mm 3 mps 746 mmHg 25%
14:00 +37°C° 0 mm 3 mps 745 mmHg 24%
15:00 +37°C° 0 mm 3 mps 745 mmHg 24%
16:00 +37°C° 0 mm 3 mps 744 mmHg 25%
17:00 +37°C° 0 mm 3 mps 744 mmHg 25%
18:00 +34°C° 0 mm 2 mps 744 mmHg 29%
19:00 +31°C° 0 mm 1 mps 744 mmHg 32%
20:00 +29°C° 0 mm 1 mps 744 mmHg 36%
21:00 +28°C° 0.1 mm 1 mps 744 mmHg 42%
22:00 +27°C° 0.1 mm 2 mps 744 mmHg 48%
23:00 +26°C° 0.1 mm 3 mps 744 mmHg 55%

7 August, Saturday

Time Temperature Precipitation Wind Pressure Humidity
00:00 +25°C° 0.1 mm 3 mps 744 mmHg 59%
01:00 +25°C° 0.1 mm 3 mps 744 mmHg 64%
02:00 +24°C° 0.1 mm 3 mps 744 mmHg 69%
03:00 +23°C° 0 mm 4 mps 744 mmHg 73%
04:00 +22°C° 0 mm 4 mps 744 mmHg 77%
05:00 +22°C° 0 mm 4 mps 744 mmHg 81%
06:00 +23°C° 0 mm 4 mps 745 mmHg 74%
07:00 +26°C° 0 mm 4 mps 745 mmHg 67%
08:00 +28°C° 0 mm 4 mps 745 mmHg 60%
09:00 +29°C° 0 mm 4 mps 745 mmHg 55%
10:00 +32°C° 0 mm 5 mps 745 mmHg 50%
11:00 +33°C° 0 mm 5 mps 745 mmHg 45%
12:00 +34°C° 0 mm 5 mps 745 mmHg 43%
13:00 +35°C° 0 mm 5 mps 745 mmHg 41%
14:00 +35°C° 0 mm 5 mps 746 mmHg 39%
15:00 +35°C° 0 mm 5 mps 746 mmHg 40%
16:00 +35°C° 0 mm 5 mps 746 mmHg 41%
17:00 +34°C° 0 mm 5 mps 746 mmHg 42%
18:00 +32°C° 0.2 mm 5 mps 746 mmHg 49%
19:00 +29°C° 0.2 mm 5 mps 747 mmHg 55%
20:00 +27°C° 0.2 mm 5 mps 747 mmHg 62%
21:00 +26°C° 0.3 mm 5 mps 747 mmHg 66%
22:00 +24°C° 0.3 mm 6 mps 748 mmHg 71%
23:00 +23°C° 0.3 mm 6 mps 748 mmHg 75%

8 August, Sunday

Time Temperature Precipitation Wind Pressure Humidity
00:00 +22°C° 0.2 mm 6 mps 748 mmHg 77%
01:00 +22°C° 0.2 mm 6 mps 749 mmHg 79%
02:00 +21°C° 0.2 mm 5 mps 749 mmHg 80%
03:00 +21°C° 0 mm 5 mps 749 mmHg 83%
04:00 +21°C° 0 mm 5 mps 749 mmHg 86%
05:00 +20°C° 0 mm 4 mps 749 mmHg 89%
06:00 +22°C° 0 mm 5 mps 749 mmHg 82%
07:00 +25°C° 0 mm 5 mps 749 mmHg 75%
08:00 +26°C° 0 mm 5 mps 749 mmHg 68%
09:00 +28°C° 0 mm 5 mps 749 mmHg 61%
10:00 +29°C° 0 mm 4 mps 750 mmHg 55%
11:00 +31°C° 0 mm 3 mps 750 mmHg 48%
12:00 +33°C° 0 mm 3 mps 750 mmHg 45%
13:00 +34°C° 0 mm 3 mps 749 mmHg 42%
14:00 +35°C° 0 mm 3 mps 749 mmHg 39%
15:00 +34°C° 0 mm 3 mps 749 mmHg 39%
16:00 +34°C° 0 mm 3 mps 749 mmHg 39%
17:00 +34°C° 0 mm 3 mps 750 mmHg 39%
18:00 +32°C° 0.1 mm 4 mps 750 mmHg 45%
19:00 +30°C° 0.1 mm 4 mps 750 mmHg 50%
20:00 +28°C° 0.1 mm 5 mps 751 mmHg 55%
21:00 +28°C° 0 mm 4 mps 751 mmHg 57%
22:00 +27°C° 0 mm 4 mps 751 mmHg 59%
23:00 +27°C° 0 mm 4 mps 751 mmHg 60%

9 August, Monday

Time Temperature Precipitation Wind Pressure Humidity
00:00 +26°C° 0 mm 4 mps 752 mmHg 60%
01:00 +26°C° 0 mm 4 mps 752 mmHg 60%
02:00 +25°C° 0 mm 4 mps 752 mmHg 60%
03:00 +23°C° 0 mm 4 mps 752 mmHg 59%
04:00 +23°C° 0 mm 4 mps 752 mmHg 59%
05:00 +22°C° 0 mm 3 mps 752 mmHg 59%
06:00 +25°C° 0 mm 4 mps 752 mmHg 55%
07:00 +26°C° 0 mm 4 mps 753 mmHg 51%
08:00 +27°C° 0 mm 4 mps 753 mmHg 47%
09:00 +29°C° 0 mm 4 mps 753 mmHg 44%
10:00 +30°C° 0 mm 4 mps 753 mmHg 41%
11:00 +32°C° 0 mm 4 mps 753 mmHg 37%
12:00 +33°C° 0 mm 4 mps 753 mmHg 34%
13:00 +34°C° 0 mm 5 mps 753 mmHg 30%
14:00 +35°C° 0 mm 5 mps 753 mmHg 26%
15:00 +34°C° 0 mm 5 mps 753 mmHg 27%
16:00 +34°C° 0 mm 5 mps 753 mmHg 28%
17:00 +34°C° 0 mm 5 mps 753 mmHg 29%
18:00 +32°C° 0 mm 4 mps 753 mmHg 35%
19:00 +29°C° 0 mm 4 mps 753 mmHg 41%
20:00 +27°C° 0 mm 3 mps 753 mmHg 47%
21:00 +26°C° 0 mm 3 mps 753 mmHg 52%
22:00 +26°C° 0 mm 3 mps 753 mmHg 57%
23:00 +25°C° 0 mm 3 mps 753 mmHg 62%
Show more

We Need Your Consent

Meteoprog and our Service Providers may store and access personal data such as cookies, device identifiers or other similar technologies on your device and process such data to personalise content and ads, as well as provide social media features and to analyse the traffic.

  • Store and/or access information on your device

    Cookies, device identifiers or other information can be stored or accessed on your device for the purposes indicated above.

  • Personalised ads and content, ad and content measurement, audience insights, and products development

    Ads and content can be personalised based on a profile. More data can be added to better personalise ads and content. Ad and content performance can be measured. Insights about the audience who saw the ads and content can be derived. Such data can be used to develop or improve user’s experience, systems and software.

By clicking ‘I Agree’ you will allow the use of indicated cookies, device identifiers, web beacons or other similar technologies. Your settings can be changed in the browser on your device.

For certain purposes, legitimate interests may be relied on, rather than consent. You can read more about this in our Privacy and Cookie Policy.